Simultaneous Nadir Overpasses (SNOs) Predictions

Prediction of SNOs between GOES-15 and METOP-B Satellite Orbit:

Table of predicted SNOs for the next 14.0 days since TLE Epoch: 7/29/2023
Index Date Time (GOES-15) GOES-15 Lat,Lon METOP-B Lat,Lon Distance(km) Time Diff (sec)
1 07/30/2023 10:38:03 0.04, 161.77 0.18, 162.40 72.06 80
2 07/31/2023 22:59:39 0.00, 160.20 0.57, 157.78 277.22 80
3 08/01/2023 22:36:25 -0.05, 159.21 -0.84, 162.70 398.04 80
4 08/03/2023 10:55:29 0.01, 157.73 0.06, 158.05 36.26 80
5 08/04/2023 23:17:06 0.03, 156.16 0.63, 153.41 312.51 80
6 08/05/2023 22:53:51 -0.02, 155.16 -0.72, 158.35 363.29 80
7 08/07/2023 11:12:56 -0.02, 153.67 -0.01, 153.68 2.69 80
8 08/08/2023 23:34:32 0.07, 152.09 0.75, 149.06 345.93 80
9 08/09/2023 23:11:17 0.02, 151.10 -0.60, 154.00 330.09 80
10 08/11/2023 11:33:02 -0.07, 149.60 -0.13, 149.33 30.25 80
